Year,Month,Day,Hour,Minute,Value (Times are PST for temperature in C)
2012,07,06,00,00,13.20
2012,07,06,00,01,13.10
2012,07,06,00,02,13.10
2012,07,06,00,03,13.10
2012,07,06,00,04,13.00
2012,07,06,00,05,13.00
2012,07,06,00,06,13.00
2012,07,06,00,07,12.90
2012,07,06,00,08,12.90
2012,07,06,00,09,12.90
2012,07,06,00,10,12.90
2012,07,06,00,11,12.80
2012,07,06,00,12,12.80
2012,07,06,00,13,12.80
2012,07,06,00,14,12.80
2012,07,06,00,15,12.80
2012,07,06,00,16,12.80
2012,07,06,00,17,12.70
2012,07,06,00,18,12.70
2012,07,06,00,19,12.70
2012,07,06,00,20,12.70
2012,07,06,00,21,12.70
2012,07,06,00,22,12.60
2012,07,06,00,23,12.60
2012,07,06,00,24,12.60
2012,07,06,00,25,12.60
2012,07,06,00,26,12.50
2012,07,06,00,27,12.50
2012,07,06,00,28,12.40
2012,07,06,00,29,12.40
2012,07,06,00,30,12.40
2012,07,06,00,31,12.40
2012,07,06,00,32,12.40
2012,07,06,00,33,12.30
2012,07,06,00,34,12.30
2012,07,06,00,35,12.30
2012,07,06,00,36,12.30
2012,07,06,00,37,12.30
2012,07,06,00,38,12.20
2012,07,06,00,39,12.20
2012,07,06,00,40,12.20
2012,07,06,00,41,12.20
2012,07,06,00,42,12.20
2012,07,06,00,43,12.10
2012,07,06,00,44,12.10
2012,07,06,00,45,12.10
2012,07,06,00,46,12.10
2012,07,06,00,47,12.10
2012,07,06,00,48,12.10
2012,07,06,00,49,12.10
2012,07,06,00,50,12.10
2012,07,06,00,51,12.00
2012,07,06,00,52,12.00
2012,07,06,00,53,12.10
2012,07,06,00,54,12.10
2012,07,06,00,55,12.10
2012,07,06,00,56,12.00
2012,07,06,00,57,12.00
2012,07,06,00,58,12.10
2012,07,06,00,59,12.10
2012,07,06,01,00,12.10
2012,07,06,01,01,12.10
2012,07,06,01,02,12.10
2012,07,06,01,03,12.10
2012,07,06,01,04,12.00
2012,07,06,01,05,12.00
2012,07,06,01,06,12.00
2012,07,06,01,07,12.00
2012,07,06,01,08,12.00
2012,07,06,01,09,12.00
2012,07,06,01,10,11.90
2012,07,06,01,11,11.90
2012,07,06,01,12,11.90
2012,07,06,01,13,11.90
2012,07,06,01,14,11.90
2012,07,06,01,15,11.80
2012,07,06,01,16,11.80
2012,07,06,01,17,11.80
2012,07,06,01,18,11.80
2012,07,06,01,19,11.80
2012,07,06,01,20,11.80
2012,07,06,01,21,11.80
2012,07,06,01,22,11.70
2012,07,06,01,23,11.70
2012,07,06,01,24,11.70
2012,07,06,01,25,11.70
2012,07,06,01,26,11.70
2012,07,06,01,27,11.70
2012,07,06,01,28,11.70
2012,07,06,01,29,11.60
2012,07,06,01,30,11.60
2012,07,06,01,31,11.60
2012,07,06,01,32,11.60
2012,07,06,01,33,11.60
2012,07,06,01,34,11.50
2012,07,06,01,35,11.50
2012,07,06,01,36,11.50
2012,07,06,01,37,11.50
2012,07,06,01,38,11.40
2012,07,06,01,39,11.40
2012,07,06,01,40,11.40
2012,07,06,01,41,11.40
2012,07,06,01,42,11.40
2012,07,06,01,43,11.40
2012,07,06,01,44,11.40
2012,07,06,01,45,11.40
2012,07,06,01,46,11.30
2012,07,06,01,47,11.30
2012,07,06,01,48,11.30
2012,07,06,01,49,11.30
2012,07,06,01,50,11.30
2012,07,06,01,51,11.30
2012,07,06,01,52,11.20
2012,07,06,01,53,11.20
2012,07,06,01,54,11.20
2012,07,06,01,55,11.20
2012,07,06,01,56,11.20
2012,07,06,01,57,11.20
2012,07,06,01,58,11.20
2012,07,06,01,59,11.10
2012,07,06,02,00,11.10
2012,07,06,02,01,11.10
2012,07,06,02,02,11.10
2012,07,06,02,03,11.10
2012,07,06,02,04,11.10
2012,07,06,02,05,11.10
2012,07,06,02,06,11.00
2012,07,06,02,07,11.00
2012,07,06,02,08,11.00
2012,07,06,02,09,11.00
2012,07,06,02,10,11.00
2012,07,06,02,11,10.90
2012,07,06,02,12,10.90
2012,07,06,02,13,10.90
2012,07,06,02,14,10.90
2012,07,06,02,15,11.00
2012,07,06,02,16,11.00
2012,07,06,02,17,11.00
2012,07,06,02,18,11.00
2012,07,06,02,19,11.00
2012,07,06,02,20,11.00
2012,07,06,02,21,11.00
2012,07,06,02,22,11.00
2012,07,06,02,23,11.00
2012,07,06,02,24,11.00
2012,07,06,02,25,10.90
2012,07,06,02,26,10.90
2012,07,06,02,27,10.90
2012,07,06,02,28,10.90
2012,07,06,02,29,10.90
2012,07,06,02,30,10.90
2012,07,06,02,31,10.90
2012,07,06,02,32,10.80
2012,07,06,02,33,10.80
2012,07,06,02,34,10.80
2012,07,06,02,35,10.80
2012,07,06,02,36,10.80
2012,07,06,02,37,10.80
2012,07,06,02,38,10.80
2012,07,06,02,39,10.80
2012,07,06,02,40,10.80
2012,07,06,02,41,10.80
2012,07,06,02,42,10.70
2012,07,06,02,43,10.70
2012,07,06,02,44,10.70
2012,07,06,02,45,10.70
2012,07,06,02,46,10.70
2012,07,06,02,47,10.70
2012,07,06,02,48,10.70
2012,07,06,02,49,10.70
2012,07,06,02,50,10.60
2012,07,06,02,51,10.60
2012,07,06,02,52,10.60
2012,07,06,02,53,10.60
2012,07,06,02,54,10.60
2012,07,06,02,55,10.60
2012,07,06,02,56,10.60
2012,07,06,02,57,10.50
2012,07,06,02,58,10.50
2012,07,06,02,59,10.50
2012,07,06,03,00,10.50
2012,07,06,03,01,10.50
2012,07,06,03,02,10.50
2012,07,06,03,03,10.50
2012,07,06,03,04,10.50
2012,07,06,03,05,10.50
2012,07,06,03,06,10.50
2012,07,06,03,07,10.50
2012,07,06,03,08,10.50
2012,07,06,03,09,10.50
2012,07,06,03,10,10.50
2012,07,06,03,11,10.50
2012,07,06,03,12,10.50
2012,07,06,03,13,10.50
2012,07,06,03,14,10.50
2012,07,06,03,15,10.40
2012,07,06,03,16,10.40
2012,07,06,03,17,10.40
2012,07,06,03,18,10.40
2012,07,06,03,19,10.40
2012,07,06,03,20,10.40
2012,07,06,03,21,10.40
2012,07,06,03,22,10.40
2012,07,06,03,23,10.30
2012,07,06,03,24,10.30
2012,07,06,03,25,10.30
2012,07,06,03,26,10.30
2012,07,06,03,27,10.30
2012,07,06,03,28,10.30
2012,07,06,03,29,10.30
2012,07,06,03,30,10.30
2012,07,06,03,31,10.30
2012,07,06,03,32,10.20
2012,07,06,03,33,10.20
2012,07,06,03,34,10.20
2012,07,06,03,35,10.20
2012,07,06,03,36,10.20
2012,07,06,03,37,10.20
2012,07,06,03,38,10.20
2012,07,06,03,39,10.20
2012,07,06,03,40,10.10
2012,07,06,03,41,10.10
2012,07,06,03,42,10.10
2012,07,06,03,43,10.10
2012,07,06,03,44,10.10
2012,07,06,03,45,10.10
2012,07,06,03,46,10.10
2012,07,06,03,47,10.10
2012,07,06,03,48,10.00
2012,07,06,03,49,10.00
2012,07,06,03,50,10.00
2012,07,06,03,51,10.00
2012,07,06,03,52,10.00
2012,07,06,03,53,10.00
2012,07,06,03,54,10.00
2012,07,06,03,55,10.00
2012,07,06,03,56,10.00
2012,07,06,03,57,10.00
2012,07,06,03,58,10.00
2012,07,06,03,59,9.90
2012,07,06,04,00,9.90
2012,07,06,04,01,9.90
2012,07,06,04,02,9.90
2012,07,06,04,03,9.90
2012,07,06,04,04,9.90
2012,07,06,04,05,9.90
2012,07,06,04,06,9.90
2012,07,06,04,07,9.90
2012,07,06,04,08,9.90
2012,07,06,04,09,9.90
2012,07,06,04,10,9.90
2012,07,06,04,11,9.90
2012,07,06,04,12,9.90
2012,07,06,04,13,9.90
2012,07,06,04,14,9.90
2012,07,06,04,15,9.90
2012,07,06,04,16,9.90
2012,07,06,04,17,9.90
2012,07,06,04,18,9.90
2012,07,06,04,19,9.90
2012,07,06,04,20,9.90
2012,07,06,04,21,9.90
2012,07,06,04,22,9.90
2012,07,06,04,23,9.90
2012,07,06,04,24,9.90
2012,07,06,04,25,9.90
2012,07,06,04,26,9.90
2012,07,06,04,27,9.90
2012,07,06,04,28,9.90
2012,07,06,04,29,9.80
2012,07,06,04,30,9.80
2012,07,06,04,31,9.80
2012,07,06,04,32,9.80
2012,07,06,04,33,9.80
2012,07,06,04,34,9.80
2012,07,06,04,35,9.80
2012,07,06,04,36,9.80
2012,07,06,04,37,9.80
2012,07,06,04,38,9.80
2012,07,06,04,39,9.80
2012,07,06,04,40,9.80
2012,07,06,04,41,9.70
2012,07,06,04,42,9.80
2012,07,06,04,43,9.70
2012,07,06,04,44,9.70
2012,07,06,04,45,9.70
2012,07,06,04,46,9.70
2012,07,06,04,47,9.70
2012,07,06,04,48,9.70
2012,07,06,04,49,9.70
2012,07,06,04,50,9.70
2012,07,06,04,51,9.70
2012,07,06,04,52,9.70
2012,07,06,04,53,9.70
2012,07,06,04,54,9.70
2012,07,06,04,55,9.60
2012,07,06,04,56,9.60
2012,07,06,04,57,9.60
2012,07,06,04,58,9.60
2012,07,06,04,59,9.60
2012,07,06,05,00,9.50
2012,07,06,05,01,9.50
2012,07,06,05,02,9.50
2012,07,06,05,03,9.50
2012,07,06,05,04,9.50
2012,07,06,05,05,9.50
2012,07,06,05,06,9.50
2012,07,06,05,07,9.50
2012,07,06,05,08,9.40
2012,07,06,05,09,9.50
2012,07,06,05,10,9.50
2012,07,06,05,11,9.40
2012,07,06,05,12,9.40
2012,07,06,05,13,9.40
2012,07,06,05,14,9.40
2012,07,06,05,15,9.40
2012,07,06,05,16,9.40
2012,07,06,05,17,9.40
2012,07,06,05,18,9.40
2012,07,06,05,19,9.40
2012,07,06,05,20,9.30
2012,07,06,05,21,9.30
2012,07,06,05,22,9.30
2012,07,06,05,23,9.30
2012,07,06,05,24,9.30
2012,07,06,05,25,9.30
2012,07,06,05,26,9.30
2012,07,06,05,27,9.30
2012,07,06,05,28,9.30
2012,07,06,05,29,9.30
2012,07,06,05,30,9.30
2012,07,06,05,31,9.20
2012,07,06,05,32,9.20
2012,07,06,05,33,9.20
2012,07,06,05,34,9.20
2012,07,06,05,35,9.20
2012,07,06,05,36,9.30
2012,07,06,05,37,9.30
2012,07,06,05,38,9.20
2012,07,06,05,39,9.20
2012,07,06,05,40,9.20
2012,07,06,05,41,9.20
2012,07,06,05,42,9.20
2012,07,06,05,43,9.20
2012,07,06,05,44,9.20
2012,07,06,05,45,9.20
2012,07,06,05,46,9.20
2012,07,06,05,47,9.20
2012,07,06,05,48,9.20
2012,07,06,05,49,9.20
2012,07,06,05,50,9.20
2012,07,06,05,51,9.20
2012,07,06,05,52,9.20
2012,07,06,05,53,9.20
2012,07,06,05,54,9.20
2012,07,06,05,55,9.20
2012,07,06,05,56,9.20
2012,07,06,05,57,9.30
2012,07,06,05,58,9.30
2012,07,06,05,59,9.30
2012,07,06,06,00,9.30
2012,07,06,06,01,9.30
2012,07,06,06,02,9.30
2012,07,06,06,03,9.40
2012,07,06,06,04,9.40
2012,07,06,06,05,9.50
2012,07,06,06,06,9.50
2012,07,06,06,07,9.60
2012,07,06,06,08,9.60
2012,07,06,06,09,9.70
2012,07,06,06,10,9.70
2012,07,06,06,11,9.70
2012,07,06,06,12,9.80
2012,07,06,06,13,9.80
2012,07,06,06,14,9.80
2012,07,06,06,15,9.90
2012,07,06,06,16,9.90
2012,07,06,06,17,9.90
2012,07,06,06,18,10.00
2012,07,06,06,19,10.00
2012,07,06,06,20,10.10
2012,07,06,06,21,10.10
2012,07,06,06,22,10.20
2012,07,06,06,23,10.20
2012,07,06,06,24,10.30
2012,07,06,06,25,10.30
2012,07,06,06,26,10.40
2012,07,06,06,27,10.50
2012,07,06,06,28,10.50
2012,07,06,06,29,10.60
2012,07,06,06,30,10.60
2012,07,06,06,31,10.70
2012,07,06,06,32,10.80
2012,07,06,06,33,10.90
2012,07,06,06,34,10.90
2012,07,06,06,35,11.00
2012,07,06,06,36,11.00
2012,07,06,06,37,11.10
2012,07,06,06,38,11.20
2012,07,06,06,39,11.20
2012,07,06,06,40,11.30
2012,07,06,06,41,11.30
2012,07,06,06,42,11.40
2012,07,06,06,43,11.50
2012,07,06,06,44,11.60
2012,07,06,06,45,11.60
2012,07,06,06,46,11.70
2012,07,06,06,47,11.80
2012,07,06,06,48,11.90
2012,07,06,06,49,11.90
2012,07,06,06,50,12.00
2012,07,06,06,51,12.10
2012,07,06,06,52,12.20
2012,07,06,06,53,12.30
2012,07,06,06,54,12.30
2012,07,06,06,55,12.30
2012,07,06,06,56,12.40
2012,07,06,06,57,12.40
2012,07,06,06,58,12.50
2012,07,06,06,59,12.60
2012,07,06,07,00,12.60
2012,07,06,07,01,12.70
2012,07,06,07,02,12.70
2012,07,06,07,03,12.80
2012,07,06,07,04,12.80
2012,07,06,07,05,12.90
2012,07,06,07,06,13.00
2012,07,06,07,07,13.10
2012,07,06,07,08,13.20
2012,07,06,07,09,13.30
2012,07,06,07,10,13.40
2012,07,06,07,11,13.50
2012,07,06,07,12,13.70
2012,07,06,07,13,13.80
2012,07,06,07,14,13.90
2012,07,06,07,15,14.10
2012,07,06,07,16,14.20
2012,07,06,07,17,14.30
2012,07,06,07,18,14.50
2012,07,06,07,19,14.50
2012,07,06,07,20,14.60
2012,07,06,07,21,14.70
2012,07,06,07,22,14.70
2012,07,06,07,23,14.80
2012,07,06,07,24,14.80
2012,07,06,07,25,14.80
2012,07,06,07,26,14.90
2012,07,06,07,27,14.90
2012,07,06,07,28,14.90
2012,07,06,07,29,14.90
2012,07,06,07,30,14.90
2012,07,06,07,31,14.90
2012,07,06,07,32,14.90
2012,07,06,07,33,14.90
2012,07,06,07,34,15.00
2012,07,06,07,35,15.00
2012,07,06,07,36,15.10
2012,07,06,07,37,15.10
2012,07,06,07,38,15.20
2012,07,06,07,39,15.30
2012,07,06,07,40,15.30
2012,07,06,07,41,15.40
2012,07,06,07,42,15.40
2012,07,06,07,43,15.50
2012,07,06,07,44,15.50
2012,07,06,07,45,15.60
2012,07,06,07,46,15.70
2012,07,06,07,47,15.70
2012,07,06,07,48,15.70
2012,07,06,07,49,15.80
2012,07,06,07,50,15.80
2012,07,06,07,51,15.90
2012,07,06,07,52,16.00
2012,07,06,07,53,16.00
2012,07,06,07,54,16.10
2012,07,06,07,55,16.20
2012,07,06,07,56,16.20
2012,07,06,07,57,16.20
2012,07,06,07,58,16.20
2012,07,06,07,59,16.20
2012,07,06,08,00,16.20
2012,07,06,08,01,16.20
2012,07,06,08,02,16.20
2012,07,06,08,03,16.20
2012,07,06,08,04,16.20
2012,07,06,08,05,16.30
2012,07,06,08,06,16.30
2012,07,06,08,07,16.40
2012,07,06,08,08,16.40
2012,07,06,08,09,16.50
2012,07,06,08,10,16.50
2012,07,06,08,11,16.60
2012,07,06,08,12,16.70
2012,07,06,08,13,16.70
2012,07,06,08,14,16.70
2012,07,06,08,15,16.70
2012,07,06,08,16,16.70
2012,07,06,08,17,16.70
2012,07,06,08,18,16.70
2012,07,06,08,19,16.70
2012,07,06,08,20,16.80
2012,07,06,08,21,16.80
2012,07,06,08,22,16.80
2012,07,06,08,23,16.80
2012,07,06,08,24,16.70
2012,07,06,08,25,16.70
2012,07,06,08,26,16.70
2012,07,06,08,27,16.80
2012,07,06,08,28,16.80
2012,07,06,08,29,16.80
2012,07,06,21,22,16.80
2012,07,06,21,23,16.80
2012,07,06,21,24,16.80
2012,07,06,21,25,16.80
2012,07,06,21,26,16.70
2012,07,06,21,27,16.70
2012,07,06,21,28,16.70
2012,07,06,21,29,16.60
2012,07,06,21,30,16.60
2012,07,06,21,31,16.60
2012,07,06,21,32,16.60
2012,07,06,21,33,16.50
2012,07,06,21,34,16.50
2012,07,06,21,35,16.50
2012,07,06,21,36,16.50
2012,07,06,21,37,16.40
2012,07,06,21,38,16.40
2012,07,06,21,39,16.40
2012,07,06,21,40,16.40
2012,07,06,21,41,16.30
2012,07,06,21,42,16.30
2012,07,06,21,43,16.30
2012,07,06,21,44,16.30
2012,07,06,21,45,16.30
2012,07,06,21,46,16.20
2012,07,06,21,47,16.20
2012,07,06,21,48,16.20
2012,07,06,21,49,16.20
2012,07,06,21,50,16.20
2012,07,06,21,51,16.20
2012,07,06,21,52,16.10
2012,07,06,21,53,16.10
2012,07,06,21,54,16.10
2012,07,06,21,55,16.10
2012,07,06,21,56,16.10
2012,07,06,21,57,16.10
2012,07,06,21,58,16.00
2012,07,06,21,59,16.00
2012,07,06,22,00,16.00
2012,07,06,22,01,15.90
2012,07,06,22,02,15.90
2012,07,06,22,03,15.90
2012,07,06,22,04,15.90
2012,07,06,22,05,15.90
2012,07,06,22,06,15.90
2012,07,06,22,07,15.90
2012,07,06,22,08,15.80
2012,07,06,22,09,15.80
2012,07,06,22,10,15.80
2012,07,06,22,11,15.80
2012,07,06,22,12,15.80
2012,07,06,22,13,15.80
2012,07,06,22,14,15.80
2012,07,06,22,15,15.80
2012,07,06,22,16,15.80
2012,07,06,22,17,15.80
2012,07,06,22,18,15.80
2012,07,06,22,19,15.80
2012,07,06,22,20,15.70
2012,07,06,22,21,15.70
2012,07,06,22,22,15.70
2012,07,06,22,23,15.70
2012,07,06,22,24,15.70
2012,07,06,22,25,15.70
2012,07,06,22,26,15.70
2012,07,06,22,27,15.70
2012,07,06,22,28,15.60
2012,07,06,22,29,15.60
2012,07,06,22,30,15.60
2012,07,06,22,31,15.60
2012,07,06,22,32,15.60
2012,07,06,22,33,15.60
2012,07,06,22,34,15.50
2012,07,06,22,35,15.50
2012,07,06,22,36,15.50
2012,07,06,22,37,15.50
2012,07,06,22,38,15.50
2012,07,06,22,39,15.50
2012,07,06,22,40,15.40
2012,07,06,22,41,15.40
2012,07,06,22,42,15.40
2012,07,06,22,43,15.40
2012,07,06,22,44,15.40
2012,07,06,22,45,15.40
2012,07,06,22,46,15.40
2012,07,06,22,47,15.30
2012,07,06,22,48,15.30
2012,07,06,22,49,15.30
2012,07,06,22,50,15.30
2012,07,06,22,51,15.30
2012,07,06,22,52,15.20
2012,07,06,22,53,15.20
2012,07,06,22,54,15.20
2012,07,06,22,55,15.20
2012,07,06,22,56,15.10
2012,07,06,22,57,15.10
2012,07,06,22,58,15.10
2012,07,06,22,59,15.10
2012,07,06,23,00,15.10
2012,07,06,23,01,15.10
2012,07,06,23,02,15.10
2012,07,06,23,03,15.10
2012,07,06,23,04,15.10
2012,07,06,23,05,15.10
2012,07,06,23,06,15.10
2012,07,06,23,07,15.10
2012,07,06,23,08,15.00
2012,07,06,23,09,15.00
2012,07,06,23,10,15.00
2012,07,06,23,11,15.00
2012,07,06,23,12,15.00
2012,07,06,23,13,14.90
2012,07,06,23,14,14.90
2012,07,06,23,15,14.90
2012,07,06,23,16,14.90
2012,07,06,23,17,14.90
2012,07,06,23,18,14.90
2012,07,06,23,19,14.80
2012,07,06,23,20,14.80
2012,07,06,23,21,14.80
2012,07,06,23,22,14.80
2012,07,06,23,23,14.80
2012,07,06,23,24,14.80
2012,07,06,23,25,14.80
2012,07,06,23,26,14.80
2012,07,06,23,27,14.80
2012,07,06,23,28,14.80
2012,07,06,23,29,14.80
2012,07,06,23,30,14.80
2012,07,06,23,31,14.80
2012,07,06,23,32,14.80
2012,07,06,23,33,14.80
2012,07,06,23,34,14.80
2012,07,06,23,35,14.80
2012,07,06,23,36,14.80
2012,07,06,23,37,14.80
2012,07,06,23,38,14.80
2012,07,06,23,39,14.80
2012,07,06,23,40,14.80
2012,07,06,23,41,14.80
2012,07,06,23,42,14.80
2012,07,06,23,43,14.80
2012,07,06,23,44,14.80
2012,07,06,23,45,14.80
2012,07,06,23,46,14.80
2012,07,06,23,47,14.80
2012,07,06,23,48,14.80
2012,07,06,23,49,14.80
2012,07,06,23,50,14.70
2012,07,06,23,51,14.70
2012,07,06,23,52,14.70
2012,07,06,23,53,14.70
2012,07,06,23,54,14.70
2012,07,06,23,55,14.60
2012,07,06,23,56,14.60
2012,07,06,23,57,14.60
2012,07,06,23,58,14.60
2012,07,06,23,59,14.60
